Погода в Маргарет-Ривер

Австралия     33°57′11″S   115°04′27″E
темп.,
°C
ветер,
м/с
пор.,
м/с
влажн.,
%
обл.,
%
осадки,
мм/ч
давл.,
гПа
погр.,
м
14 апреля, ср
ср1423:00+16ю4569100 0.2 1025812
02:00+16ююз4471100 0.4 1025858
05:00+17юз336799 0.3 1025907
08:00+17юз336111 0.3 1026863
11:00+18юз446283 0.1 10261133
14:00+19юз555830 0.2 10251401
17:00+18ююз566284 0.0 10261223
20:00+17ю456683 0.0 10271031
15 апреля, чт
чт1523:00+17ю446894 0.0 1027937
02:00+17ююв2366100 0.1 1026490
05:00+17юв2271100 0.1 1027438
08:00+17всв227283 0.2 1027194
11:00+19сз115872 0.1 1027675
14:00+19юз446330 0.1 1026633
17:00+20ю45686 0.0 1026874
20:00+18юв457699 0.0 1027553
16 апреля, пт
пт1623:00+16вюв358490 0.0 1027169
02:00+16вюв4584100 0.0 1027157
05:00+15в4584100 0.0 1027151
08:00+16в3476100 0.0 1028161
11:00+21св2252100 0.0 1027635
14:00+21зюз435698 0.0 1025631
17:00+20ю456355 0.0 1026521
20:00+17юв487797 0.0 1028327
17 апреля, сб
сб1723:00+16вюв697896 0.0 1028227
02:00+16в467899 0.0 1027149
05:00+15в467480 0.0 1028147
08:00+16в476993 0.0 1028186
11:00+22всв134387 0.0 1028695
14:00+22ююз5454100 0.0 1026899
17:00+21ююв56615 0.0 1027449
20:00+18юв5979100 0.0 1027279
18 апреля, вс
вс1823:00+17в457499 0.0 1027131
02:00+16в47695 0.0 1026148
05:00+16всв46680 0.0 1025146
08:00+17в24630 0.0 1026145
11:00+22зюз11450 0.0 1025578
14:00+21юз44590 0.0 1023465
17:00+21ю56610 0.0 1022398
20:00+18юв47760 0.0 1023335